DLH712 EDDB-EPKK

Flight info

Callsign DLH712
Flight time 1h 0m
Altitude 33000
Route ARSAP4N ARSAP DCT OLUMA DCT KULUV DCT NUDRO DCT MOFKE
Aircraft A320/M-SDE3FGHIRWY/LB1

Departure

Time 2026-05-04 17:36
Airport Berlin Brandenburg Airport (EDDB)

Arrival

Time 2026-05-04 18:37
Airport Kraków John Paul II International Airport (EPKK)
Time Latitude Longitude Altitude Speed Heading
2026-05-04 16:39 52.36070 13.51049 153 ft 0 kts 339°
2026-05-04 17:23 52.36066 13.51052 152 ft 2 kts 338°
2026-05-04 17:24 52.36051 13.51062 152 ft 2 kts 336°
2026-05-04 17:24 52.36009 13.51105 154 ft 2 kts 297°
2026-05-04 17:25 52.36006 13.51131 154 ft 2 kts 253°
2026-05-04 17:25 52.36008 13.51142 154 ft 0 kts 248°
2026-05-04 17:29 52.35991 13.51079 154 ft 6 kts 247°
2026-05-04 17:29 52.35939 13.50841 153 ft 9 kts 250°
2026-05-04 17:30 52.35883 13.50750 155 ft 7 kts 153°
2026-05-04 17:31 52.35839 13.50788 155 ft 0 kts 154°
2026-05-04 17:32 52.35838 13.50788 155 ft 1 kts 154°
2026-05-04 17:33 52.35889 13.51107 155 ft 11 kts 69°
2026-05-04 17:33 52.35912 13.51209 156 ft 8 kts 69°
2026-05-04 17:34 52.36049 13.51783 160 ft 26 kts 70°
2026-05-04 17:34 52.36106 13.52035 159 ft 17 kts 70°
2026-05-04 17:35 52.35932 13.52225 162 ft 18 kts 168°
2026-05-04 17:35 52.35736 13.51861 163 ft 59 kts 249°
2026-05-04 17:35 52.35504 13.50889 164 ft 121 kts 248°
2026-05-04 17:36 52.35142 13.49323 167 ft 169 kts 252°
2026-05-04 17:36 52.34728 13.47490 679 ft 174 kts 249°
2026-05-04 17:36 52.34251 13.45648 1347 ft 177 kts 246°
2026-05-04 17:36 52.33708 13.43846 1989 ft 180 kts 236°
2026-05-04 17:37 52.32857 13.42185 2282 ft 202 kts 228°
2026-05-04 17:37 52.31841 13.40443 2642 ft 221 kts 226°
2026-05-04 17:37 52.30753 13.38594 3305 ft 227 kts 227°
2026-05-04 17:37 52.29662 13.36712 4140 ft 229 kts 227°
2026-05-04 17:38 52.28574 13.34802 4942 ft 231 kts 227°
2026-05-04 17:38 52.27483 13.32856 5737 ft 233 kts 227°
2026-05-04 17:38 52.26390 13.30881 6560 ft 235 kts 228°
2026-05-04 17:38 52.25282 13.28927 7346 ft 236 kts 221°
2026-05-04 17:39 52.22161 13.27746 8855 ft 247 kts 165°
2026-05-04 17:39 52.20685 13.29234 9614 ft 257 kts 134°
2026-05-04 17:39 52.19817 13.31824 10295 ft 267 kts 111°
2026-05-04 17:40 52.19469 13.34922 10601 ft 293 kts 91°
2026-05-04 17:40 52.19530 13.38374 10832 ft 317 kts 89°
2026-05-04 17:40 52.19630 13.42095 11033 ft 340 kts 89°
2026-05-04 17:40 52.19750 13.46055 11404 ft 355 kts 88°
2026-05-04 17:41 52.19880 13.50116 12052 ft 361 kts 88°
2026-05-04 17:41 52.20014 13.54240 12740 ft 366 kts 88°
2026-05-04 17:41 52.20142 13.58402 13439 ft 370 kts 89°
2026-05-04 17:41 52.20265 13.62622 14085 ft 374 kts 89°
2026-05-04 17:42 52.20383 13.66880 14691 ft 378 kts 89°
2026-05-04 17:42 52.20498 13.71179 15301 ft 382 kts 89°
2026-05-04 17:42 52.20613 13.75533 15895 ft 385 kts 89°
2026-05-04 17:42 52.20728 13.79906 16485 ft 389 kts 89°
2026-05-04 17:43 52.20845 13.84343 17070 ft 393 kts 89°
2026-05-04 17:43 52.20962 13.88815 17664 ft 397 kts 89°
2026-05-04 17:43 52.21080 13.93336 18242 ft 400 kts 90°
2026-05-04 17:43 52.21199 13.97888 18760 ft 404 kts 89°
2026-05-04 17:44 52.21316 14.02481 19277 ft 407 kts 89°
2026-05-04 17:44 52.21427 14.07104 19797 ft 410 kts 89°
2026-05-04 17:44 52.21534 14.11766 20322 ft 413 kts 89°
2026-05-04 17:44 52.21641 14.16471 20838 ft 416 kts 89°
2026-05-04 17:45 52.21750 14.21214 21351 ft 420 kts 89°
2026-05-04 17:45 52.21861 14.25982 21863 ft 423 kts 89°
2026-05-04 17:45 52.21973 14.30797 22358 ft 426 kts 89°
2026-05-04 17:45 52.22085 14.35643 22808 ft 430 kts 89°
2026-05-04 17:46 52.22193 14.40527 22939 ft 431 kts 89°
2026-05-04 17:46 52.22299 14.45427 23351 ft 434 kts 89°
2026-05-04 17:46 52.22404 14.50357 23775 ft 436 kts 89°
2026-05-04 17:46 52.22507 14.55314 24162 ft 439 kts 89°
2026-05-04 17:47 52.22605 14.60313 24527 ft 442 kts 89°
2026-05-04 17:47 52.22641 14.65341 24884 ft 444 kts 94°
2026-05-04 17:47 52.22261 14.70335 25235 ft 445 kts 103°
2026-05-04 17:47 52.21420 14.75192 25583 ft 445 kts 112°
2026-05-04 17:48 52.20167 14.79743 25922 ft 446 kts 119°
2026-05-04 17:48 52.18755 14.84262 26267 ft 448 kts 119°
2026-05-04 17:48 52.17336 14.88790 26612 ft 451 kts 119°
2026-05-04 17:48 52.15906 14.93348 26941 ft 453 kts 119°
2026-05-04 17:49 52.14468 14.97929 27279 ft 455 kts 119°
2026-05-04 17:49 52.13025 15.02522 27600 ft 457 kts 120°
2026-05-04 17:49 52.11569 15.07140 27916 ft 459 kts 120°
2026-05-04 17:49 52.10106 15.11768 28224 ft 461 kts 120°
2026-05-04 17:50 52.08635 15.16413 28548 ft 463 kts 120°
2026-05-04 17:50 52.07153 15.21089 28847 ft 465 kts 120°
2026-05-04 17:50 52.05666 15.25781 29137 ft 467 kts 120°
2026-05-04 17:50 52.04172 15.30482 29416 ft 469 kts 120°
2026-05-04 17:51 52.02669 15.35197 29689 ft 471 kts 120°
2026-05-04 17:51 52.01160 15.39919 29956 ft 473 kts 120°
2026-05-04 17:51 51.99640 15.44666 30202 ft 474 kts 120°
2026-05-04 17:51 51.98114 15.49421 30410 ft 476 kts 120°
2026-05-04 17:52 51.96581 15.54193 30621 ft 478 kts 120°
2026-05-04 17:52 51.95043 15.58975 30827 ft 478 kts 120°
2026-05-04 17:52 51.93504 15.63749 31112 ft 478 kts 120°
2026-05-04 17:52 51.91961 15.68520 31390 ft 477 kts 120°
2026-05-04 17:53 51.90418 15.73284 31659 ft 477 kts 120°
2026-05-04 17:53 51.88717 15.77879 31897 ft 475 kts 127°
2026-05-04 17:53 51.86851 15.82293 32161 ft 475 kts 127°
2026-05-04 17:53 51.84981 15.86699 32422 ft 475 kts 127°
2026-05-04 17:54 51.83109 15.91093 32682 ft 475 kts 127°
2026-05-04 17:54 51.81230 15.95502 32892 ft 476 kts 127°
2026-05-04 17:54 51.77524 16.04210 32941 ft 467 kts 127°
2026-05-04 17:55 51.73847 16.12822 32941 ft 465 kts 127°
2026-05-04 17:55 51.70170 16.21408 32936 ft 465 kts 127°
2026-05-04 17:56 51.68307 16.25653 32473 ft 462 kts 132°
2026-05-04 17:56 51.66148 16.29416 31871 ft 456 kts 137°
2026-05-04 17:56 51.63955 16.33073 31317 ft 452 kts 137°
2026-05-04 17:56 51.61784 16.36691 30790 ft 448 kts 137°
2026-05-04 17:57 51.60326 16.39114 30444 ft 445 kts 137°
2026-05-04 17:57 51.58175 16.42678 29942 ft 441 kts 137°
2026-05-04 17:57 51.56050 16.46194 29366 ft 437 kts 137°
2026-05-04 17:57 51.53935 16.49680 28821 ft 433 kts 137°
2026-05-04 17:58 51.51836 16.53126 28285 ft 429 kts 137°
2026-05-04 17:58 51.49757 16.56536 27762 ft 425 kts 137°
2026-05-04 17:58 51.47696 16.59913 27256 ft 422 kts 137°
2026-05-04 17:58 51.45654 16.63259 26764 ft 418 kts 137°
2026-05-04 17:59 51.43658 16.66533 26287 ft 414 kts 137°
2026-05-04 17:59 51.41625 16.69860 25807 ft 411 kts 137°
2026-05-04 17:59 51.37677 16.76292 24907 ft 404 kts 137°
2026-05-04 18:00 51.35718 16.79480 24467 ft 401 kts 137°
2026-05-04 18:00 51.33771 16.82645 24038 ft 397 kts 137°
2026-05-04 18:00 51.31840 16.85785 23610 ft 394 kts 137°
2026-05-04 18:00 51.29924 16.88903 23127 ft 391 kts 137°
2026-05-04 18:01 51.28027 16.91992 22638 ft 388 kts 137°
2026-05-04 18:01 51.26139 16.95052 22166 ft 385 kts 137°
2026-05-04 18:01 51.24260 16.98089 21700 ft 383 kts 137°
2026-05-04 18:02 51.20542 17.04084 20939 ft 378 kts 137°
2026-05-04 18:02 51.18691 17.07063 20917 ft 379 kts 137°
2026-05-04 18:02 51.16835 17.10049 20923 ft 379 kts 137°
2026-05-04 18:02 51.14975 17.13041 20924 ft 379 kts 137°
2026-05-04 18:03 51.13115 17.16026 20922 ft 379 kts 137°
2026-05-04 18:03 51.11255 17.19004 20927 ft 380 kts 138°
2026-05-04 18:03 51.09392 17.21981 20925 ft 380 kts 137°
2026-05-04 18:03 51.07532 17.24957 20928 ft 380 kts 137°
2026-05-04 18:04 51.05669 17.27941 20927 ft 380 kts 137°
2026-05-04 18:04 51.03783 17.30950 20926 ft 380 kts 138°
2026-05-04 18:04 51.00049 17.36892 20933 ft 380 kts 137°
2026-05-04 18:05 50.98366 17.40136 20933 ft 384 kts 123°
2026-05-04 18:05 50.97204 17.43962 20938 ft 386 kts 116°
2026-05-04 18:05 50.96134 17.47801 20934 ft 386 kts 116°
2026-05-04 18:05 50.95055 17.51705 20937 ft 386 kts 116°
2026-05-04 18:06 50.92908 17.59506 20936 ft 386 kts 116°
2026-05-04 18:06 50.91828 17.63411 20937 ft 386 kts 116°
2026-05-04 18:06 50.90747 17.67307 20937 ft 386 kts 116°
2026-05-04 18:07 50.89660 17.71194 20939 ft 386 kts 116°
2026-05-04 18:07 50.88570 17.75080 20934 ft 386 kts 116°
2026-05-04 18:07 50.87481 17.78961 20937 ft 386 kts 116°
2026-05-04 18:07 50.86391 17.82847 20942 ft 386 kts 116°
2026-05-04 18:08 50.85301 17.86722 20940 ft 386 kts 116°
2026-05-04 18:08 50.84208 17.90603 20941 ft 385 kts 116°
2026-05-04 18:08 50.83119 17.94478 20941 ft 386 kts 116°
2026-05-04 18:08 50.82033 17.98337 20697 ft 383 kts 116°
2026-05-04 18:09 50.79874 18.05976 19802 ft 378 kts 116°
2026-05-04 18:09 50.77732 18.13521 18948 ft 373 kts 116°
2026-05-04 18:10 50.76669 18.17255 18540 ft 371 kts 116°
2026-05-04 18:10 50.75611 18.20961 18115 ft 369 kts 116°
2026-05-04 18:10 50.74557 18.24647 17663 ft 367 kts 116°
2026-05-04 18:10 50.73506 18.28314 17219 ft 365 kts 116°
2026-05-04 18:11 50.72462 18.31954 16802 ft 362 kts 117°
2026-05-04 18:11 50.71426 18.35563 16388 ft 360 kts 117°
2026-05-04 18:11 50.70395 18.39143 15992 ft 357 kts 117°
2026-05-04 18:11 50.69369 18.42710 15594 ft 355 kts 117°
2026-05-04 18:12 50.68352 18.46247 15205 ft 353 kts 117°
2026-05-04 18:12 50.67341 18.49758 14828 ft 351 kts 117°
2026-05-04 18:12 50.66333 18.53248 14449 ft 348 kts 118°
2026-05-04 18:12 50.65329 18.56711 14076 ft 346 kts 118°
2026-05-04 18:13 50.64332 18.60147 13700 ft 344 kts 118°
2026-05-04 18:13 50.63339 18.63566 13273 ft 342 kts 118°
2026-05-04 18:13 50.61366 18.70341 12451 ft 338 kts 118°
2026-05-04 18:14 50.60390 18.73683 12036 ft 336 kts 118°
2026-05-04 18:14 50.59418 18.77010 11629 ft 334 kts 117°
2026-05-04 18:14 50.58453 18.80322 11228 ft 332 kts 117°
2026-05-04 18:15 50.56541 18.86872 10449 ft 327 kts 117°
2026-05-04 18:15 50.54654 18.93300 9864 ft 316 kts 117°
2026-05-04 18:15 50.53752 18.96368 9673 ft 302 kts 117°
2026-05-04 18:16 50.52877 18.99340 9232 ft 298 kts 118°
2026-05-04 18:16 50.52008 19.02277 8890 ft 295 kts 118°
2026-05-04 18:16 50.51143 19.05191 8520 ft 293 kts 118°
2026-05-04 18:17 50.49431 19.10953 7774 ft 289 kts 118°
2026-05-04 18:17 50.48583 19.13812 7395 ft 288 kts 118°
2026-05-04 18:17 50.46906 19.19469 6791 ft 285 kts 118°
2026-05-04 18:18 50.46066 19.22290 6552 ft 284 kts 118°
2026-05-04 18:18 50.45230 19.25095 6307 ft 282 kts 118°
2026-05-04 18:18 50.44411 19.27845 6079 ft 273 kts 118°
2026-05-04 18:18 50.43629 19.30487 5998 ft 259 kts 118°
2026-05-04 18:19 50.42150 19.35457 6005 ft 250 kts 119°
2026-05-04 18:19 50.41410 19.37921 6008 ft 250 kts 119°
2026-05-04 18:19 50.40671 19.40383 6008 ft 250 kts 118°
2026-05-04 18:20 50.39929 19.42845 6007 ft 250 kts 119°
2026-05-04 18:20 50.39187 19.45305 6009 ft 250 kts 119°
2026-05-04 18:20 50.38446 19.47766 6007 ft 250 kts 118°
2026-05-04 18:20 50.37706 19.50226 6007 ft 249 kts 118°
2026-05-04 18:21 50.36952 19.52728 6009 ft 258 kts 118°
2026-05-04 18:21 50.36182 19.55281 6011 ft 260 kts 118°
2026-05-04 18:21 50.35931 19.56111 6012 ft 260 kts 118°
2026-05-04 18:21 50.35260 19.58321 6011 ft 260 kts 119°
2026-05-04 18:22 50.34485 19.60875 6010 ft 260 kts 118°
2026-05-04 18:22 50.33708 19.63437 6009 ft 260 kts 118°
2026-05-04 18:22 50.32932 19.66000 6011 ft 261 kts 118°
2026-05-04 18:22 50.32156 19.68564 6012 ft 261 kts 118°
2026-05-04 18:23 50.31381 19.71125 6011 ft 261 kts 118°
2026-05-04 18:23 50.30603 19.73689 6008 ft 261 kts 118°
2026-05-04 18:23 50.29826 19.76248 6007 ft 261 kts 118°
2026-05-04 18:23 50.29046 19.78811 6009 ft 261 kts 118°
2026-05-04 18:24 50.28275 19.81341 6008 ft 261 kts 118°
2026-05-04 18:24 50.27493 19.83904 6010 ft 261 kts 118°
2026-05-04 18:24 50.26711 19.86465 6010 ft 260 kts 118°
2026-05-04 18:24 50.25928 19.89023 6010 ft 261 kts 118°
2026-05-04 18:25 50.25145 19.91580 6011 ft 261 kts 118°
2026-05-04 18:25 50.24362 19.94127 6009 ft 260 kts 118°
2026-05-04 18:25 50.23577 19.96681 6009 ft 261 kts 118°
2026-05-04 18:25 50.22794 19.99232 6011 ft 260 kts 118°
2026-05-04 18:26 50.22012 20.01778 6009 ft 260 kts 118°
2026-05-04 18:26 50.21290 20.04375 6010 ft 262 kts 109°
2026-05-04 18:26 50.20980 20.07175 6009 ft 264 kts 93°
2026-05-04 18:26 50.21148 20.10029 6010 ft 266 kts 79°
2026-05-04 18:27 50.21534 20.12849 6009 ft 265 kts 79°
2026-05-04 18:27 50.21913 20.15668 6010 ft 266 kts 79°
2026-05-04 18:27 50.22293 20.18492 6011 ft 265 kts 79°
2026-05-04 18:27 50.22671 20.21310 6007 ft 265 kts 79°
2026-05-04 18:28 50.23049 20.24124 6011 ft 265 kts 79°
2026-05-04 18:28 50.23374 20.26950 6005 ft 263 kts 90°
2026-05-04 18:28 50.23035 20.29701 5926 ft 255 kts 119°
2026-05-04 18:28 50.21966 20.31777 5684 ft 241 kts 147°
2026-05-04 18:29 50.20482 20.32847 5333 ft 234 kts 171°
2026-05-04 18:29 50.18891 20.33352 5037 ft 232 kts 171°
2026-05-04 18:29 50.17290 20.33602 5002 ft 231 kts 191°
2026-05-04 18:29 50.15841 20.32649 5019 ft 227 kts 222°
2026-05-04 18:30 50.14505 20.28067 4999 ft 247 kts 258°
2026-05-04 18:30 50.14192 20.25526 5010 ft 232 kts 258°
2026-05-04 18:30 50.13875 20.23087 5019 ft 229 kts 257°
2026-05-04 18:31 50.13549 20.20671 5019 ft 228 kts 257°
2026-05-04 18:31 50.13222 20.18253 5006 ft 228 kts 257°
2026-05-04 18:31 50.12895 20.15832 5007 ft 228 kts 257°
2026-05-04 18:31 50.12571 20.13446 4924 ft 223 kts 257°
2026-05-04 18:32 50.12253 20.11099 4687 ft 220 kts 257°
2026-05-04 18:32 50.11937 20.08776 4407 ft 218 kts 257°
2026-05-04 18:32 50.11623 20.06473 4122 ft 217 kts 257°
2026-05-04 18:32 50.11314 20.04201 3834 ft 210 kts 257°
2026-05-04 18:33 50.11018 20.02032 3568 ft 199 kts 257°
2026-05-04 18:33 50.10735 19.99964 3319 ft 192 kts 256°
2026-05-04 18:33 50.10459 19.97951 3075 ft 189 kts 256°
2026-05-04 18:33 50.10193 19.96011 2856 ft 176 kts 256°
2026-05-04 18:34 50.09945 19.94206 2606 ft 165 kts 256°
2026-05-04 18:34 50.09716 19.92538 2392 ft 150 kts 256°
2026-05-04 18:34 50.09505 19.91002 2227 ft 141 kts 256°
2026-05-04 18:34 50.09368 19.90014 2093 ft 140 kts 256°
2026-05-04 18:35 50.09166 19.88550 1892 ft 138 kts 256°
2026-05-04 18:35 50.08961 19.87069 1722 ft 138 kts 256°
2026-05-04 18:35 50.08760 19.85611 1536 ft 139 kts 257°
2026-05-04 18:35 50.08558 19.84150 1359 ft 137 kts 257°
2026-05-04 18:36 50.08354 19.82678 1169 ft 139 kts 257°
2026-05-04 18:36 50.08149 19.81204 1007 ft 139 kts 258°
2026-05-04 18:36 50.07950 19.79728 807 ft 139 kts 258°
2026-05-04 18:36 50.07771 19.78431 791 ft 91 kts 256°
2026-05-04 18:37 50.07656 19.77635 789 ft 68 kts 258°
2026-05-04 18:37 50.07573 19.77031 795 ft 35 kts 258°
2026-05-04 18:37 50.07499 19.76848 795 ft 18 kts 186°
2026-05-04 18:37 50.07364 19.76890 790 ft 18 kts 167°
2026-05-04 18:38 50.07320 19.76907 789 ft 1 kts 159°
2026-05-04 18:38 50.07309 19.76926 789 ft 8 kts 126°
2026-05-04 18:38 50.07326 19.77092 789 ft 19 kts 77°
2026-05-04 18:38 50.07354 19.77299 789 ft 20 kts 78°
2026-05-04 18:39 50.07384 19.77520 789 ft 22 kts 76°
2026-05-04 18:39 50.07418 19.77756 789 ft 23 kts 78°
2026-05-04 18:39 50.07453 19.78010 789 ft 25 kts 77°
2026-05-04 18:39 50.07491 19.78276 789 ft 24 kts 77°
2026-05-04 18:40 50.07527 19.78542 789 ft 26 kts 77°
2026-05-04 18:40 50.07567 19.78822 789 ft 27 kts 78°
2026-05-04 18:40 50.07607 19.79109 789 ft 22 kts 77°
2026-05-04 18:40 50.07636 19.79319 789 ft 18 kts 77°
2026-05-04 18:41 50.07659 19.79486 789 ft 15 kts 78°
2026-05-04 18:41 50.07677 19.79622 789 ft 11 kts 78°
2026-05-04 18:41 50.07693 19.79732 789 ft 10 kts 78°
2026-05-04 18:41 50.07704 19.79830 789 ft 8 kts 90°
2026-05-04 18:42 50.07672 19.79883 789 ft 6 kts 168°
2026-05-04 18:42 50.07611 19.79899 789 ft 12 kts 169°
2026-05-04 18:42 50.07538 19.79923 789 ft 8 kts 168°
2026-05-04 18:42 50.07511 19.79977 789 ft 7 kts 92°
2026-05-04 18:43 50.07518 19.80059 789 ft 4 kts 105°
2026-05-04 18:43 50.07495 19.80072 789 ft 6 kts 166°
2026-05-04 18:43 50.07473 19.80080 789 ft 0 kts 166°
2026-05-04 18:43 50.07472 19.80080 789 ft 0 kts 166°